Weather Service Report


955 
ASUS43 KLSX 200907
RWRMO 

WEATHER SUMMARY FOR MISSOURI
NATIONAL WEATHER SERVICE SPRINGFIELD MO
400 AM CDT FRI OCT 20 2017

NOTE: "FAIR" INDICATES FEW OR NO CLOUDS BELOW 12,000 FEET WITH NO
       SIGNIFICANT WEATHER AND/OR OBSTRUCTIONS TO VISIBILITY.
       CURRENT SKY AND/OR WEATHER CONDITIONS ARE NOT AVAILABLE FOR
       CHILLICOTHE AND FARMINGTON.

MOZ001>031-035>038-043-044-053-054-201000-
...NORTHERN AND WESTERN MISSOURI...
  
CITY           SKY/WX    TMP DP  RH WIND       PRES   REMARKS
KANSAS CTY INT FAIR      59  52  77 S15       30.07F                  
KANSAS C DTWN  FAIR      60  53  77 SW7       30.07F                  
LEE'S SUMMIT   FAIR      58  52  80 S10       30.09F                  
ST JOSEPH      FAIR      54  52  93 S5        30.06S                  
CHILLICOTHE      N/A     49  48  97 CALM      30.10S                  
KIRKSVILLE     FAIR      57  52  83 SW7       30.11S                  
     
$$
MOZ066>068-077>081-088>096-101>105-201000-
...SOUTHWEST MISSOURI...
  
CITY           SKY/WX    TMP DP  RH WIND       PRES   REMARKS
SPRINGFIELD    FAIR      52  49  89 S8        30.16R                  
JOPLIN         FAIR      56  52  86 S9        30.14S                  
BRANSON        FAIR      54  48  82 CALM      30.18S                  
               
$$
MOZ032>034-039>042-045>050-055>058-069>072-201000-
...CENTRAL MISSOURI...  
  
CITY           SKY/WX    TMP DP  RH WIND       PRES   REMARKS
COLUMBIA       FAIR      56  49  77 S6        30.14S                  
JEFFERSON CITY FAIR      50  46  86 SE3       30.14S                  
ROLLA          FAIR      58  50  75 S14       30.16S                  
SEDALIA        FAIR      61  52  72 S13       30.13S                  
WHITEMAN AFB   CLEAR     52  48  87 S7        30.08S                  
WARRENSBURG    FAIR      52  48  87 S6        30.11S                  
OSAGE BEACH    FAIR      52  49  89 CALM      30.16S                  
               
$$
MOZ051-052-059>065-201000-
...EAST CENTRAL MISSOURI...
  
CITY           SKY/WX    TMP DP  RH WIND       PRES   REMARKS
ST LOUIS INTL  FAIR      59  51  75 S5        30.17R                  
SPIRIT OF STL  FOG       47  47 100 CALM      30.16S VSB 1/4          
ST CHARLES     FAIR      50  48  93 E6        30.16S                  
                   
$$
MOZ072>076-082>087-097>100-106>115-201000-
...SOUTH CENTRAL AND SOUTHEAST MISSOURI...
  
CITY           SKY/WX    TMP DP  RH WIND       PRES   REMARKS
CAPE GIRARDEAU FOG       46  44  93 CALM      30.21R VSB 1            
FARMINGTON     FAIR      57  49  74 S7        30.19S                  
POPLAR BLUFF   FAIR      46  45  96 CALM      30.20S FOG              
WEST PLAINS    FAIR      51  47  86 CALM      30.20S                  
                                       
$$

Return to Home page


Western Regional Climate Center, wrcc@dri.edu